Flag for Poland Weather past 2 weeks in Lublin, Poland

Now
56 °F

Fog.


Feels Like: 56 °F
Forecast: 52 / 70 °F
Wind: 2 mph from East

Location: Lublin Radawiec

Current Time: Sep 3, 2014 at 10:20:09 AM

Latest Report: Sep 3, 2014 at 9:00 AM


Visibility: 5 mi

Pressure: 30.23 "Hg

Humidity: 93%

Dew point: 54 °F

Location of LublinLocation

Historic Weather in Lublin — Graph

°F

Lublin temperature yesterday

Maximum temperature yesterday: 66 °F (at 4:00 PM)
Minimum temperature yesterday: 57 °F (at 7:00 AM)
Average temperature yesterday: 60 °F

Past Weeks' High & Low Weather Summary

 TemperatureHumidityPressure
High72 °F (Aug 31, 2:00 PM)99% (Aug 20, 7:00 AM)30.23 "Hg (Aug 20, 7:00 AM)
Low45 °F (Aug 22, 2:00 AM)42% (Aug 29, 2:00 PM)29.73 "Hg (Aug 26, 6:00 PM)
Average58 °F84%29.98 "Hg
* Reported Aug 19 9:00 AM — Sep 3 9:00 AM, Lublin, Weather by CustomWeather, © 2014

Note: Actual official high and low records may vary slightly from our data, if they occured in-between our weather recording intervals... More about our weather records

Advertising

Lublin weather history for previous 24 hours

 ConditionsComfort  
Time TempWeatherWind HumidityBarometerVisibility
9:00 AM
Sep 3
56 °FFog.2 mph93%30.23 "Hg5 mi
8:00 AM54 °FLow clouds.2 mph97%30.22 "Hg2 mi
7:00 AM53 °FDrizzle. Low clouds.2 mph98%30.22 "Hg1 mi
6:00 AM53 °FDrizzle. Low clouds.2 mph98%30.20 "Hg1 mi
5:00 AM53 °FFog.2 mph97%30.19 "Hg2 mi
4:00 AM54 °FFog.2 mph96%30.18 "Hg4 mi
3:00 AM54 °FLow clouds.2 mph94%30.19 "Hg14 mi
2:00 AM54 °FClear.2 mph93%30.18 "Hg13 mi
1:00 AM55 °FPassing clouds.3 mph91%30.18 "Hg17 mi
12:00 AM56 °FPassing clouds.3 mph90%30.17 "Hg17 mi
11:00 PM
Sep 2
58 °FClear.3 mph88%30.16 "Hg17 mi
10:00 PM59 °FOvercast.3 mph85%30.16 "Hg16 mi
9:00 PM59 °FOvercast.3 mph85%30.15 "Hg17 mi
8:00 PM62 °FOvercast.2 mph84%30.13 "Hg14 mi
7:00 PM63 °FPartly sunny.2 mph81%30.09 "Hg25 mi
6:00 PM64 °FPartly sunny.3 mph78%30.07 "Hg22 mi
5:00 PM66 °FPartly sunny.3 mph76%30.07 "Hg19 mi
4:00 PM66 °FPartly sunny.3 mph74%30.06 "Hg17 mi
3:00 PM65 °FPartly sunny.3 mph75%30.06 "Hg14 mi
2:00 PM64 °FPartly sunny.3 mph80%30.07 "Hg19 mi
1:00 PM61 °FOvercast.3 mph84%30.07 "Hg14 mi
12:00 PM59 °FLow clouds.3 mph88%30.07 "Hg7 mi
11:00 AM59 °FFog.3 mph89%30.06 "Hg6 mi
10:00 AM57 °FFog.3 mph92%30.06 "Hg6 mi
Weather by CustomWeather, © 2014

See weather overviewHow to use our weather pages